Погода в Чагыле

Погода в Чагыле : погода сейчас, прогноз погоды и архив. Всё, что Вы хотите узнать о погоде в Чагыле!

Хотите узнать прогноз погоды в Чагыле? Тогда Вам сюда: Погода в Чагыле

Поиск расширенной информации на нашем сайте:

Другие новости

Новости СМИ2

Главная страница сайта

Новости сайта

03.07.2017

Напоминаем, что на нашем специализированном сайте Метеоцентр.Азия вы можете получить высокодетализированные автоматические прогнозы погоды по пунктам России, СНГ и мира в авиационном формате (включающие направление и скорость ветра, видимость, явления погоды, количество и форму облачности, нижнюю и верхнюю границу облачности).

Рекомендуем: ЭлектроКотлы и газовые Котлы: комбинированные котлы цена.

Погода в Чагыле - сегодня

Время (UTC), дата Ветер
(°,м/с) 
Видим.   Явления Облачность Т
(°С)
Тd
(°С)
f(%) Тe
(°С)
Pmin
(гПа)
dP
(гПа)
Po
(мм)
O2
(г/м3)
Тmin Tmax R s Состояние
почвы
21 23.05.18 070 (В) 20000 м    ясно 
+23.8 +4 28 +24  1020  0.8  755  279           
00 24.05.18 050 (СВ) 20000 м    ясно 
+21.7 +4.3 32 +22  1020.3  0.2  755  281           
03 24.05.18 070 (В) 20000 м    ясно 
+22.1 +5.3 33 +22  1020  -0.2  755  281           
06 24.05.18 090 (В) 20000 м    ясно 
+29.5 +8.5 27 +30  1018.6  -1.1  754  273  +18.8         
09 24.05.18 090 (В) 20000 м    ясно 
+32.8 +8.4 22 +33  1016.7  -1.7  753  269           
12 24.05.18 110 (В) 20000 м    ясно 
+34.2 +5.8 17 +34  1014  -2.6  751  268           
15 24.05.18 090 (В) 20000 м    ясно 
+33.2 +6.7 19 +33  1013.1  -1  750  268    +34.2       
18 24.05.18 070 (В) 20000 м    ясно 
+28.1 +4.5 22 +28  1013.5  0.3  750  273    +34.2       
21 24.05.18 070 (В) 20000 м    ясно 
+25.4 +3.6 24 +25  1014.2  0.5  751  276           
00 25.05.18 070 (В) 20000 м    ясно 
+23.3 +4 28 +23  1014.3  751  278           
03 25.05.18 090 (В) 20000 м    ясно 
+23.8 +0.6 22 +24  1012.8  -1.5  750  278           
06 25.05.18 090 (В) 20000 м    ясно 
+31.3 +2.7 16 +31  1011.3  -1.1  749  270  +21.5         
09 25.05.18 090 (В) 20000 м    ясно 
+35.5 +1.1 11 +36  1010.4  -0.8  748  267           
12 25.05.18 090 (В) 20000 м    ясно 
+37.3 +3.4 12 +37  1008.2  -2  747  264           
15 25.05.18 110 (В) 20000 м    ясно 
+36.4 +2.7 12 +36  1007.2  -1  746  265    +37.5       
18 25.05.18 тихо ()   20000 м    ясно 
+27.5 -3 13 +28  1008  0.4  746  273    +37.5       
21 25.05.18 тихо ()   20000 м    ясно 
+24.4 -0.7 19 +24  1008.3  0.2  746  276           
00 26.05.18 тихо ()   20000 м    ясно 
+21.8 +1.9 27 +22  1008.7  0.2  747  278           
03 26.05.18 тихо ()   20000 м    9/0 верхняя 
[Ci fib]
+21.4 +4.6 33 +21  1007.3  -1.4  746  278           
06 26.05.18 тихо ()   20000 м    ясно 
+32.4 +5.3 18 +32  1006.2  -0.6  745  268  +21         
09 26.05.18 250 (З) 20000 м    9/0 верхняя 
[Ci fib]
+37.8 +5 13 +38  1004.5  -1.5  744  263           
12 26.05.18 250 (З) 20000 м    9/0 верхняя 
[Ci fib]
+33.2 +7.6 21 +33  1004.7  0.1  744  266           
15 26.05.18 270 (З) 20000 м    9/0 верхняя 
[Ci fib]
+29.3 +11.1 32 +32  1005.7  0.7  745  269    +38.5       
18 26.05.18 270 (З) 20000 м    9/0 средняя 
[Ac trans]
+25.2 +18.6 67 +41  1007  1.2  745  271    +38.5       
21 26.05.18 270 (З) 20000 м    9/0 средняя 
[Ac trans]
+23.1 +17.8 72 +37  1007.5  0.5  746  273           
Время (UTC), дата Ветер
(°,м/с) 
Видим.   Явления Облачность Т
(°С)
Тd
(°С)
f(%) Тe
(°С)
Pmin
(гПа)
dP
(гПа)
Po
(мм)
O2
(г/м3)
Тmin Tmax R s Состояние
почвы

Для получения пояснительной информации подведите курсор к названию столбца.

ПОГОДА в Чагыле - архив

Всё, что Вы хотите узнать о погоде в Чагыле - удобно и подробно!

Выберите нужную дату (начиная с 1 января 2015* года) и нажмите кнопку "Найти".
Будут отображены архивные сводки погоды по пункту Чагыл, начиная с указанной даты.


Отображать данные в формате CSV (для использования в таблицах Excel)


Внимание! Наш архив погоды предназначен исключительно для личного некоммерческого использования в познавательных целях. Если Вам необходимы официальные справки о состоянии погоды (для производственных, юридических, коммерческих и т.п. целей), обращайтесь в органы Росгидромета.

*Примечание: данная дата относится к архиву по метеостанциям СССР (Россия, СНГ, Балтия).
Архив по метеостанциям Зарубежной Европы и Азии (кроме Китая) хранится 10 дней, по другим регионам земного шара (Китай, Африка, Америка, Австралия, Океания) - 1 день.

Чагыл - район местоположения метеостанции


Название, широта, долгота, высота метеостанции:
Чагыл 40.8°ш. 55.3°д. 115 м над ур. моря [Туркменистан]

Дополнительная информация

В oтличие oт бoльшинства пoгoдных сайтoв мы публикуем пoдрoбную метеoинфoрмацию в детальнoм прoфессиoнальнoм фoрмате.

Характеристики температуры и влажнoсти вoздуха измеряются на высoте 2 м в тени вдали oт зданий и деревьев.
Скoрoсть ветра измеряется на высoте 10 м (на урoвне рoста челoвека скoрoсть ветра ниже в 1.5-2 раза). Если метеoстанция нахoдится в гoрoде или в лесу, тo скoрoсть ветра занижена на 2-4 м/с пo сравнению с oткрытым местoм. Скoрoсть ветра над акватoриями крупных рек и oзёр, а также на вершинах хoлмoв на 2-5 м/с выше, чем в oбычных услoвиях.
Атмoсфернoе давление в разных тoчках местнoсти мoжет значительнo oтличаться oт давления на метеoстанции, в зависимoсти oт услoвий рельефа (при пoдъёме на 10 м давление пoнижается примернo на 1 мм рт.ст.).